OROVILLE DAM (ORO)

Elevation: 900' · FEATHER R basin · Operator: CA Dept of Water Resources/O & M

Provisional data, subject to change.
Query executed Friday at 4:39:00   clock

Select a sensor type for a plot of data.
Note: Reservoir Flows are daily averages.

Earlier

Date RES ELE    STORAGE    RES CHG    TOC STO    ABV TOC    OUTFLOW    INFLOW    EVAP    FNF    PPT INC    RAIN    PPTINC4   
 FEET   AF   AF   AF   AF   CFS   CFS   CFS   CFS   INCHES   INCHES   INCHES  
08/21/2014 683.60 1133787 -5410 3538000 -2404213 2892 194 65 724 e 0.00 19.28 0.00
08/22/2014 682.88 1128679 -5108 3538000 -2409321 2910 412 78 596 0.00 19.28 0.00
08/23/2014 682.09 1123093 -5586 3538000 -2414907 2808 56 64 715 0.00 19.28 0.00
08/24/2014 681.40 1118230 -4863 3538000 -2419770 2808 420 64 783 0.00 19.28 0.00
08/25/2014 680.89 1114645 -3585 3538000 -2423355 2787 1113 98 491 0.00 19.28 0.00
08/26/2014 680.53 1112120 -2525 3538000 -2425880 2723 1513 64 838 0.00 19.28 0.00
08/27/2014 680.19 1109738 -2382 3538000 -2428262 2821 1650 66 1092 0.00 19.28 0.00
08/28/2014 679.84 1107290 -2448 3538000 -2430710 2822 1670 81 759 0.00 19.28 0.00
08/29/2014 679.44 1104497 -2793 3538000 -2433503 2673 1351 86 660 0.00 19.28 0.00
08/30/2014 679.04 1101709 -2788 3538000 -2436291 2616 1296 86 598 0.00 19.28 0.00
08/31/2014 678.85 1100386 -1323 3538000 -2437614 2505 1923 86 829 0.00 19.28 0.00
09/01/2014 678.92 1100873 487 3538000 -2437127 2329 2660 85 827 e 0.00 19.28 0.00
09/02/2014 678.49 1097883 -2990 3538000 -2440117 2325 874 56 827 e 0.00 19.28 0.00
09/03/2014 678.78 1099900 2017 3538000 -2438100 664 1766 85 827 e 0.00 19.28 0.00
09/04/2014 678.51 1098022 -1878 3538000 -2439978 2447 1616 80 484 0.00 19.28 0.00
09/05/2014 678.25 1096217 -1805 3538000 -2441783 2430 1569 85 701 0.00 19.28 0.00
09/06/2014 677.97 1094275 -1942 3538000 -2443725 2244 1382 82 710 0.00 19.28 0.00
09/07/2014 677.75 1092751 -1524 3538000 -2445249 2175 1442 71 762 e 0.00 19.28 0.00
09/08/2014 677.78 1092959 208 3538000 -2445041 2173 2390 78 762 e 0.00 19.28 0.00
09/09/2014 677.58 1091575 -1384 3538000 -2446425 1965 1339 73 857 e 0.00 19.28 0.00
09/10/2014 677.25 1089293 -2282 3538000 -2448707 1967 918 66 857 e 0.00 19.28 0.00
09/11/2014 677.36 1090053 760 3538000 -2447947 1741 2178 89 768 e 0.00 19.28 0.00
09/12/2014 677.11 1088326 -1727 3538000 -- 1861 1059 103 778 e 0.00 19.28 0.00
09/13/2014 677.06 1087981 -345 3538000 -- 1860 1815 94 778 e 0.00 19.28 0.00
09/14/2014 676.87 1086670 -1311 3538000 -2451330 1861 1282 82 681 0.00 19.28 0.00
09/15/2014 676.55 1084464 -2206 3538000 -2453536 1858 828 117 -- 0.00 19.28 0.00
09/16/2014 676.78 1086050 1586 3525500 -2439450 1861 2739 79 -- 0.00 19.28 0.00
09/17/2014 676.49 1084051 -1999 3513000 -2428949 1858 919 68 -- 0.00 19.28 0.00
09/18/2014 676.44 1083707 -344 3500500 -- 1841 1751 84 -- 0.00 -- 0.00
09/19/2014 -- -- -- -- -- -- -- -- -- -- -- --

Later | Latest

Warning! This data is preliminary and subject to revision.

Download Data Now Download Data Now | Show ORO Map | Plot ORO Data | 1 Month ORO Data | Real-Time ORO Data | ORO Info